Tracking 19903 objects as of 16-Oct-2019
HD Live streaming from Space Station
objects crossing your sky now

FLOCK 2K 02

Track FLOCK 2K 02 now!
10-day predictions
FLOCK 2K 02 is classified as:


NORAD ID: 42853
Int'l Code: 2017-042AE
Perigee: 451.9 km
Apogee: 466.8 km
Inclination: 96.9 °
Period: 93.6 minutes
Semi major axis: 6830 km
RCS: Unknown
Launch date: July 14, 2017
Source: United States (US)
Launch site: TYURATAM MISSILE AND SPACE COMPLEX (TTMTR)
aabbcc
Your satellite tracking list
Your tracking list is empty




NASA's NSSDC Master Catalog

Two Line Element Set (TLE):
1 42853U 17042AE  19288.87717563  .00003604  00000-0  98435-4 0  9994
2 42853  96.9215 163.0165 0010890 147.2753 212.9169 15.37945910126143
Source of the keplerian elements: AFSPC